| time (UTC) | temp F | wind direction | speed knots | gust knots | rain 1hr in | rain 24hr in | rain mn in | humidity % | barometer mb |
| 20260508092516 | 56 | 315 | 7.8 | 8.7 | 0.00 | 0.00 | 0.00 | 62 | 1013.4 |
| 20260508091536 | 56 | 315 | 8.7 | 9.6 | 0.00 | 0.00 | 0.00 | 65 | 1013.4 |
| 20260508090516 | 57 | 338 | 8.7 | 9.6 | 0.00 | 0.00 | 0.00 | 63 | 1013.3 |
| 20260508085516 | 57 | 338 | 9.6 | 11.3 | 0.00 | 0.00 | 0.00 | 63 | 1013.2 |
| 20260508084516 | 57 | 338 | 11.3 | 13.0 | 0.00 | 0.00 | 0.00 | 65 | 1013.1 |
| 20260508083515 | 56 | 315 | 10.4 | 11.3 | 0.00 | 0.01 | 0.00 | 70 | 1013.0 |
| 20260508082516 | 56 | 315 | 9.6 | 11.3 | 0.00 | 0.01 | 0.00 | 73 | 1012.9 |
| 20260508081516 | 56 | 315 | 7.0 | 9.6 | 0.00 | 0.01 | 0.00 | 76 | 1012.9 |
| 20260508080516 | 56 | 315 | 9.6 | 11.3 | 0.00 | 0.01 | 0.00 | 73 | 1012.7 |
| 20260508075516 | 55 | 293 | 7.0 | 10.4 | 0.00 | 0.01 | 0.00 | 76 | 1012.5 |
| 20260508074515 | 56 | 315 | 8.7 | 10.4 | 0.00 | 0.01 | 0.00 | 75 | 1012.4 |
| 20260508073536 | 56 | 293 | 7.8 | 9.6 | 0.00 | 0.01 | 0.00 | 75 | 1012.2 |
| 20260508072516 | 56 | 293 | 8.7 | 10.4 | 0.00 | 0.01 | 0.00 | 77 | 1012.1 |
| 20260508071516 | 56 | 293 | 9.6 | 11.3 | 0.00 | 0.01 | 0.00 | 77 | 1011.9 |
| 20260508070515 | 56 | 270 | 8.7 | 13.0 | 0.00 | 0.01 | 0.00 | 77 | 1011.7 |
| 20260508065515 | 55 | 270 | 5.2 | 9.6 | 0.00 | 0.01 | 0.00 | 76 | 1011.5 |
| 20260508064516 | 55 | 293 | 7.8 | 9.6 | 0.00 | 0.01 | 0.00 | 78 | 1011.4 |
| 20260508063516 | 55 | 270 | 2.6 | 3.5 | 0.00 | 0.01 | 0.00 | 80 | 1011.2 |
| 20260508062536 | 54 | 270 | 5.2 | 7.0 | 0.00 | 0.01 | 0.00 | 84 | 1011.3 |
| 20260508061515 | 54 | 270 | 7.0 | 9.6 | 0.00 | 0.01 | 0.00 | 85 | 1011.2 |
| 20260508060515 | 54 | 270 | 3.5 | 7.0 | 0.00 | 0.01 | 0.00 | 85 | 1011.2 |
| 20260508055515 | 54 | 270 | 5.2 | 7.8 | 0.00 | 0.01 | 0.00 | 86 | 1011.1 |
| 20260508054515 | 54 | 270 | 2.6 | 5.2 | 0.00 | 0.01 | 0.00 | 86 | 1011.0 |
| 20260508053515 | 54 | 248 | 6.1 | 10.4 | 0.00 | 0.03 | 0.00 | 86 | 1011.0 |
| 20260508052535 | 54 | 270 | 3.5 | 7.8 | 0.00 | 0.07 | 0.00 | 85 | 1011.0 |
| 20260508051515 | 54 | 225 | 3.5 | 9.6 | 0.00 | 0.10 | 0.00 | 85 | 1011.0 |
| 20260508050518 | 55 | 248 | 3.5 | 5.2 | 0.00 | 0.12 | 0.00 | 85 | 1010.8 |
| 20260508045518 | 55 | 248 | 5.2 | 7.0 | 0.00 | 0.13 | 0.00 | 84 | 1010.8 |
| 20260508044556 | 55 | 248 | 5.2 | 9.6 | 0.00 | 0.15 | 0.00 | 84 | 1010.7 |
| 20260508043515 | 55 | 270 | 4.3 | 8.7 | 0.00 | 0.15 | 0.00 | 83 | 1010.7 |
| 20260508042515 | 55 | 248 | 4.3 | 7.0 | 0.00 | 0.15 | 0.00 | 83 | 1010.6 |
| 20260508041535 | 55 | 248 | 4.3 | 7.0 | 0.00 | 0.15 | 0.00 | 82 | 1010.5 |
| 20260508040556 | 56 | 270 | 0.9 | 2.6 | 0.00 | 0.15 | 0.00 | 81 | 1010.4 |
| 20260508035516 | 56 | 270 | 2.6 | 4.3 | 0.00 | 0.15 | 0.15 | 81 | 1010.4 |
| 20260508034516 | 55 | 248 | 2.6 | 5.2 | 0.00 | 0.15 | 0.15 | 82 | 1010.4 |
| 20260508033516 | 55 | 293 | 1.7 | 2.6 | 0.00 | 0.15 | 0.15 | 82 | 1010.4 |
| 20260508032516 | 55 | 248 | 2.6 | 4.3 | 0.00 | 0.15 | 0.15 | 82 | 1010.4 |
| 20260508031517 | 55 | 248 | 0.9 | 1.7 | 0.00 | 0.15 | 0.15 | 82 | 1010.4 |
| 20260508030516 | 54 | 270 | 0.9 | 2.6 | 0.00 | 0.15 | 0.15 | 81 | 1010.4 |
| 20260508025516 | 54 | 0.0 | 0.9 | 0.00 | 0.15 | 0.15 | 81 | 1010.5 | |
| 20260508024516 | 54 | 0.0 | 0.9 | 0.00 | 0.15 | 0.15 | 80 | 1010.4 | |
| 20260508023516 | 55 | 0.0 | 0.0 | 0.00 | 0.15 | 0.15 | 79 | 1010.5 | |
| 20260508022516 | 55 | 248 | 0.9 | 1.7 | 0.00 | 0.15 | 0.15 | 78 | 1010.5 |
| 20260508021517 | 55 | 270 | 1.7 | 3.5 | 0.00 | 0.15 | 0.15 | 77 | 1010.5 |
| 20260508020516 | 55 | 0.0 | 1.7 | 0.00 | 0.15 | 0.15 | 77 | 1010.5 | |
| 20260508015536 | 56 | 270 | 1.7 | 3.5 | 0.00 | 0.15 | 0.15 | 76 | 1010.3 |
| 20260508014516 | 56 | 248 | 1.7 | 3.5 | 0.00 | 0.15 | 0.15 | 76 | 1010.3 |
| 20260508013516 | 56 | 248 | 0.9 | 3.5 | 0.00 | 0.15 | 0.15 | 75 | 1010.2 |
| 20260508012516 | 56 | 0.0 | 0.9 | 0.00 | 0.15 | 0.15 | 74 | 1010.1 | |
| 20260508011516 | 56 | 180 | 0.9 | 2.6 | 0.00 | 0.15 | 0.15 | 73 | 1009.9 |
| 20260508010536 | 56 | 180 | 0.9 | 6.1 | 0.00 | 0.15 | 0.15 | 73 | 1009.6 |
| 20260508005516 | 56 | 225 | 0.9 | 1.7 | 0.00 | 0.15 | 0.15 | 72 | 1009.6 |
| 20260508004516 | 56 | 203 | 0.9 | 2.6 | 0.00 | 0.15 | 0.15 | 72 | 1009.4 |
| 20260508003536 | 56 | 0.0 | 1.7 | 0.00 | 0.15 | 0.15 | 72 | 1009.4 | |
| 20260508002516 | 56 | 0.0 | 0.0 | 0.00 | 0.15 | 0.15 | 71 | 1009.2 | |
| 20260508001536 | 57 | 0.0 | 1.7 | 0.00 | 0.15 | 0.15 | 69 | 1009.1 | |
| 20260508000516 | 58 | 0.0 | 0.0 | 0.00 | 0.15 | 0.15 | 68 | 1009.0 | |
| 20260507235516 | 58 | 0.0 | 0.0 | 0.00 | 0.15 | 0.15 | 67 | 1008.9 | |
| 20260507234516 | 59 | 0.0 | 0.0 | 0.00 | 0.15 | 0.15 | 65 | 1008.8 | |
| 20260507233516 | 60 | 203 | 0.9 | 4.3 | 0.00 | 0.15 | 0.15 | 63 | 1008.7 |
| 20260507232516 | 60 | 0.0 | 0.9 | 0.00 | 0.15 | 0.15 | 63 | 1008.6 | |
| 20260507231516 | 60 | 180 | 0.9 | 1.7 | 0.00 | 0.15 | 0.15 | 63 | 1008.6 |
| 20260507230516 | 60 | 225 | 0.9 | 2.6 | 0.00 | 0.15 | 0.15 | 63 | 1008.6 |
| 20260507225516 | 60 | 225 | 0.9 | 3.5 | 0.00 | 0.15 | 0.15 | 63 | 1008.5 |
| 20260507224515 | 60 | 158 | 2.6 | 6.1 | 0.00 | 0.15 | 0.15 | 63 | 1008.4 |
| 20260507223518 | 61 | 180 | 0.9 | 1.7 | 0.00 | 0.15 | 0.15 | 63 | 1008.4 |
| 20260507222516 | 61 | 158 | 0.9 | 1.7 | 0.00 | 0.15 | 0.15 | 61 | 1008.3 |
| 20260507221516 | 61 | 180 | 1.7 | 4.3 | 0.00 | 0.15 | 0.15 | 59 | 1008.3 |
| 20260507220515 | 61 | 135 | 0.9 | 3.5 | 0.00 | 0.15 | 0.15 | 59 | 1008.3 |
| 20260507215516 | 61 | 158 | 1.7 | 3.5 | 0.00 | 0.15 | 0.15 | 59 | 1008.4 |
| 20260507214516 | 61 | 135 | 0.9 | 3.5 | 0.00 | 0.15 | 0.15 | 58 | 1008.4 |
| 20260507213516 | 61 | 0.0 | 0.9 | 0.00 | 0.15 | 0.15 | 58 | 1008.5 | |
| 20260507212516 | 61 | 315 | 0.9 | 1.7 | 0.00 | 0.15 | 0.15 | 59 | 1008.5 |
| 20260507211515 | 61 | 0.0 | 0.0 | 0.00 | 0.15 | 0.15 | 59 | 1008.6 | |
| 20260507210516 | 61 | 135 | 3.5 | 4.3 | 0.00 | 0.15 | 0.15 | 57 | 1008.5 |
| 20260507205516 | 61 | 113 | 3.5 | 6.1 | 0.00 | 0.15 | 0.15 | 57 | 1008.7 |
| 20260507204516 | 61 | 180 | 0.9 | 4.3 | 0.00 | 0.15 | 0.15 | 60 | 1008.7 |
| 20260507203516 | 61 | 225 | 1.7 | 3.5 | 0.00 | 0.15 | 0.15 | 60 | 1008.6 |
| 20260507202536 | 61 | 225 | 2.6 | 4.3 | 0.00 | 0.15 | 0.15 | 61 | 1008.5 |
| 20260507201516 | 59 | 113 | 4.3 | 7.0 | 0.00 | 0.15 | 0.15 | 61 | 1008.5 |
| 20260507200515 | 59 | 113 | 5.2 | 6.1 | 0.00 | 0.15 | 0.15 | 62 | 1008.5 |
| 20260507195515 | 59 | 113 | 6.1 | 7.8 | 0.00 | 0.15 | 0.15 | 61 | 1008.5 |
| 20260507194515 | 59 | 90 | 6.1 | 7.0 | 0.00 | 0.15 | 0.15 | 65 | 1008.7 |
| 20260507193515 | 58 | 90 | 2.6 | 3.5 | 0.00 | 0.15 | 0.15 | 62 | 1009.1 |
| 20260507192515 | 58 | 113 | 4.3 | 7.0 | 0.00 | 0.15 | 0.15 | 60 | 1009.3 |
| 20260507191515 | 58 | 113 | 7.0 | 7.8 | 0.00 | 0.15 | 0.15 | 65 | 1008.8 |
| 20260507190516 | 58 | 90 | 6.1 | 7.8 | 0.00 | 0.15 | 0.15 | 63 | 1009.3 |
| 20260507185515 | 58 | 90 | 2.6 | 5.2 | 0.00 | 0.15 | 0.15 | 63 | 1009.6 |
| 20260507184515 | 58 | 90 | 4.3 | 6.1 | 0.00 | 0.15 | 0.15 | 63 | 1009.5 |
| 20260507183515 | 57 | 90 | 4.3 | 5.2 | 0.00 | 0.15 | 0.15 | 62 | 1009.8 |
| 20260507182518 | 57 | 90 | 1.7 | 2.6 | 0.00 | 0.15 | 0.15 | 61 | 1009.7 |
| 20260507181515 | 57 | 90 | 4.3 | 6.1 | 0.00 | 0.15 | 0.15 | 64 | 1009.8 |
| 20260507180515 | 57 | 45 | 3.5 | 5.2 | 0.00 | 0.15 | 0.15 | 65 | 1010.1 |
| 20260507175515 | 57 | 23 | 1.7 | 3.5 | 0.00 | 0.15 | 0.15 | 62 | 1010.3 |
| 20260507174515 | 57 | 23 | 2.6 | 3.5 | 0.00 | 0.15 | 0.15 | 62 | 1010.0 |
| 20260507173515 | 57 | 23 | 1.7 | 2.6 | 0.00 | 0.15 | 0.15 | 60 | 1010.6 |
| 20260507172515 | 57 | 23 | 0.9 | 1.7 | 0.00 | 0.15 | 0.15 | 62 | 1010.5 |
| 20260507171515 | 57 | 23 | 0.9 | 1.7 | 0.00 | 0.15 | 0.15 | 61 | 1010.6 |
| 20260507170515 | 57 | 23 | 1.7 | 2.6 | 0.00 | 0.15 | 0.15 | 61 | 1010.7 |
| 20260507165515 | 57 | 23 | 0.9 | 1.7 | 0.00 | 0.15 | 0.15 | 62 | 1010.9 |
| 20260507164515 | 57 | 23 | 1.7 | 2.6 | 0.00 | 0.15 | 0.15 | 63 | 1011.2 |
| 20260507163515 | 57 | 0 | 2.6 | 3.5 | 0.00 | 0.15 | 0.15 | 62 | 1011.2 |
| 20260507162515 | 57 | 23 | 2.6 | 3.5 | 0.00 | 0.15 | 0.15 | 62 | 1011.3 |
| 20260507161515 | 57 | 23 | 3.5 | 4.3 | 0.00 | 0.15 | 0.15 | 61 | 1011.4 |
| 20260507160535 | 57 | 23 | 4.3 | 4.3 | 0.00 | 0.15 | 0.15 | 63 | 1011.5 |
| 20260507155515 | 57 | 23 | 5.2 | 7.0 | 0.00 | 0.15 | 0.15 | 66 | 1011.6 |
| 20260507154515 | 57 | 0 | 4.3 | 6.1 | 0.00 | 0.16 | 0.15 | 62 | 1011.6 |
| 20260507153515 | 57 | 23 | 5.2 | 6.1 | 0.00 | 0.16 | 0.15 | 62 | 1011.5 |
| 20260507152515 | 57 | 0 | 5.2 | 7.0 | 0.00 | 0.16 | 0.15 | 59 | 1011.5 |
| 20260507151515 | 57 | 338 | 5.2 | 7.0 | 0.00 | 0.16 | 0.15 | 58 | 1011.7 |
| 20260507150515 | 57 | 338 | 5.2 | 7.0 | 0.00 | 0.17 | 0.15 | 64 | 1012.0 |
| 20260507145515 | 57 | 338 | 7.0 | 7.8 | 0.00 | 0.20 | 0.15 | 61 | 1012.0 |
| 20260507144517 | 57 | 315 | 7.0 | 9.6 | 0.00 | 0.23 | 0.15 | 62 | 1012.1 |
| 20260507143517 | 57 | 338 | 7.8 | 10.4 | 0.00 | 0.24 | 0.15 | 57 | 1012.1 |
| 20260507142537 | 57 | 338 | 7.8 | 8.7 | 0.00 | 0.24 | 0.15 | 58 | 1012.1 |
| 20260507141540 | 57 | 338 | 8.7 | 10.4 | 0.00 | 0.25 | 0.15 | 60 | 1012.2 |
| 20260507140517 | 57 | 338 | 10.4 | 11.3 | 0.00 | 0.26 | 0.15 | 56 | 1012.3 |
| 20260507135517 | 57 | 338 | 6.1 | 9.6 | 0.00 | 0.26 | 0.15 | 62 | 1012.4 |
| 20260507134517 | 57 | 315 | 11.3 | 13.0 | 0.00 | 0.26 | 0.15 | 62 | 1012.3 |
| 20260507133516 | 57 | 315 | 9.6 | 11.3 | 0.00 | 0.26 | 0.15 | 63 | 1012.2 |
| 20260507132517 | 57 | 338 | 11.3 | 13.9 | 0.00 | 0.26 | 0.15 | 63 | 1012.0 |
| 20260507131517 | 57 | 315 | 9.6 | 11.3 | 0.00 | 0.26 | 0.15 | 62 | 1012.2 |
| 20260507130517 | 57 | 338 | 10.4 | 12.2 | 0.00 | 0.26 | 0.15 | 63 | 1012.4 |
| 20260507125515 | 57 | 315 | 9.6 | 12.2 | 0.00 | 0.26 | 0.15 | 63 | 1012.3 |
| 20260507124520 | 57 | 338 | 8.7 | 9.6 | 0.00 | 0.26 | 0.15 | 62 | 1012.4 |
| 20260507123516 | 58 | 338 | 8.7 | 10.4 | 0.00 | 0.26 | 0.15 | 65 | 1012.1 |
| 20260507122537 | 58 | 338 | 8.7 | 10.4 | 0.00 | 0.26 | 0.15 | 66 | 1012.1 |
| 20260507121557 | 58 | 315 | 7.0 | 7.8 | 0.00 | 0.26 | 0.15 | 66 | 1012.1 |
| 20260507120517 | 58 | 338 | 6.1 | 7.8 | 0.00 | 0.26 | 0.15 | 66 | 1011.9 |
| 20260507115516 | 57 | 338 | 7.8 | 7.8 | 0.00 | 0.26 | 0.15 | 67 | 1011.9 |
| 20260507114517 | 58 | 338 | 7.8 | 8.7 | 0.00 | 0.26 | 0.15 | 71 | 1011.8 |
| 20260507113537 | 58 | 338 | 7.8 | 9.6 | 0.00 | 0.26 | 0.15 | 72 | 1011.8 |
| 20260507112516 | 58 | 338 | 9.6 | 11.3 | 0.00 | 0.26 | 0.15 | 75 | 1011.8 |
| 20260507111516 | 57 | 338 | 8.7 | 9.6 | 0.00 | 0.26 | 0.15 | 78 | 1011.8 |
| 20260507110517 | 57 | 315 | 8.7 | 10.4 | 0.00 | 0.26 | 0.15 | 82 | 1011.7 |
| 20260507105517 | 57 | 338 | 7.0 | 7.8 | 0.00 | 0.26 | 0.15 | 82 | 1011.4 |
| 20260507104516 | 57 | 338 | 5.2 | 7.0 | 0.00 | 0.26 | 0.15 | 81 | 1011.5 |
| 20260507103516 | 57 | 338 | 6.1 | 7.8 | 0.00 | 0.26 | 0.15 | 80 | 1011.3 |
| 20260507102516 | 57 | 338 | 6.1 | 7.8 | 0.00 | 0.26 | 0.15 | 81 | 1011.1 |
| 20260507101517 | 57 | 338 | 6.1 | 7.0 | 0.00 | 0.26 | 0.15 | 83 | 1011.1 |
| 20260507100516 | 57 | 338 | 7.8 | 8.7 | 0.00 | 0.26 | 0.15 | 84 | 1011.1 |
| 20260507095516 | 57 | 315 | 7.0 | 7.8 | 0.00 | 0.26 | 0.15 | 85 | 1011.2 |
| 20260507094516 | 57 | 338 | 6.1 | 7.8 | 0.00 | 0.26 | 0.15 | 85 | 1011.1 |
| 20260507093536 | 57 | 338 | 6.1 | 7.8 | 0.01 | 0.26 | 0.15 | 86 | 1011.1 |